Change the Weather History Date:

Wednesday, March 26, 2014

  Actual Average Record
Temperature  
Mean Temperature 42 °F -  
Max Temperature 48 °F 52 °F 62 °F (1969)
Min Temperature 35 °F 37 °F 30 °F (1971)
Degree Days  
Heating Degree Days 24    
Moisture  
Dew Point 40 °F    
Average Humidity 87    
Maximum Humidity 97    
Minimum Humidity 74    
Precipitation  
Precipitation 0.01 in - - ()
Sea Level Pressure  
Sea Level Pressure 29.54 in    
Wind  
Wind Speed 3 mph (WSW)    
Max Wind Speed 7 mph    
Max Gust Speed -    
Visibility 9 miles    
Events Rain    
Averages and records for this station are not official NWS values.
T = Trace of Precipitation, MM = Missing Value Source: NWS Daily Summary

Daily Weather History Graph

Daily Weather History Graph

Search for Another Location

Airport or City:

Trip Planner

Search our weather history database for the weather conditions in past years. The results will help you decide how hot, cold, wet, or windy it might be!

Date:

Astronomy

Mar. 26, 2014 Rise Set
Actual Time 7:04 AM PDT 7:35 PM PDT
Civil Twilight 6:33 AM PDT 8:07 PM PDT
Nautical Twilight 5:56 AM PDT 8:44 PM PDT
Astronomical Twilight 5:17 AM PDT 9:22 PM PDT
Moon 4:36 AM PDT (3/26) 3:03 PM PDT (3/26)
Length of Visible Light 13h 33m
Length of Day
12h 31m
Waning Crescent, 21% of the Moon is Illuminated
Mar 26
Waning Crescent
Mar 30
New
Apr 7
First Quarter
Apr 15
Full
Apr 22
Last Quarter

Hourly Weather History & Observations

Time (PDT) Temp. Windchill Dew Point Humidity Pressure Visibility Wind Dir Wind Speed Gust Speed Precip Events Conditions
12:53 AM 43.0 °F 39.5 °F 37.9 °F 82% 29.57 in 10.0 mi Variable 5.8 mph - N/A   Mostly Cloudy
1:53 AM 42.1 °F - 39.0 °F 89% 29.58 in 10.0 mi Calm Calm - N/A   Clear
2:53 AM 41.0 °F 39.0 °F 39.0 °F 93% 29.58 in 10.0 mi SW 3.5 mph - 0.00 in   Overcast
3:42 AM 37.9 °F - 37.0 °F 97% 29.58 in 1.8 mi Calm Calm - N/A   Clear
3:53 AM 39.0 °F 35.7 °F 37.9 °F 96% 29.58 in 3.0 mi SW 4.6 mph - N/A   Clear
4:53 AM 37.9 °F 35.5 °F 37.0 °F 97% 29.58 in 8.0 mi SW 3.5 mph - N/A   Partly Cloudy
5:51 AM 39.2 °F 37.0 °F 37.4 °F 93% 29.56 in 10.0 mi SSW 3.5 mph - N/A   Mostly Cloudy
5:53 AM 39.0 °F 36.8 °F 37.0 °F 93% 29.57 in 10.0 mi SSW 3.5 mph - N/A   Mostly Cloudy
6:09 AM 37.0 °F 33.3 °F 36.0 °F 96% 29.56 in 5.0 mi South 4.6 mph - N/A   Scattered Clouds
6:35 AM 35.1 °F - 34.0 °F 96% 29.55 in 1.8 mi Calm Calm - N/A   Clear
6:43 AM 37.0 °F 33.3 °F 36.0 °F 96% 29.56 in 3.0 mi South 4.6 mph - N/A   Clear
6:53 AM 36.0 °F - 35.1 °F 97% 29.56 in 4.0 mi Calm Calm - N/A   Scattered Clouds
7:53 AM 39.0 °F - 37.9 °F 96% 29.56 in 7.0 mi Calm Calm - N/A   Scattered Clouds
8:53 AM 46.0 °F 43.1 °F 41.0 °F 83% 29.55 in 10.0 mi ESE 5.8 mph - N/A   Partly Cloudy
9:53 AM 46.9 °F - 41.0 °F 80% 29.55 in 10.0 mi Calm Calm - N/A   Overcast
10:45 AM 46.0 °F 43.9 °F 42.1 °F 86% 29.55 in 10.0 mi NNW 4.6 mph - N/A   Overcast
10:53 AM 46.0 °F 44.8 °F 42.1 °F 86% 29.55 in 10.0 mi Variable 3.5 mph - N/A   Overcast
11:24 AM 46.9 °F - 41.0 °F 80% 29.54 in 10.0 mi Variable 4.6 mph - N/A   Overcast
11:53 AM 46.9 °F - 41.0 °F 80% 29.54 in 10.0 mi NNE 4.6 mph - N/A   Overcast
12:53 PM 46.9 °F - 41.0 °F 80% 29.53 in 10.0 mi Calm Calm - N/A   Overcast
1:53 PM 48.0 °F - 42.1 °F 80% 29.52 in 10.0 mi Calm Calm - N/A   Overcast
2:23 PM 48.0 °F - 41.0 °F 77% 29.51 in 10.0 mi NW 3.5 mph - N/A   Mostly Cloudy
2:53 PM 48.0 °F - 41.0 °F 77% 29.51 in 10.0 mi North 3.5 mph - N/A   Mostly Cloudy
3:53 PM 46.9 °F - 42.1 °F 83% 29.50 in 10.0 mi NNW 3.5 mph - N/A   Overcast
4:53 PM 48.9 °F - 41.0 °F 74% 29.50 in 10.0 mi NW 3.5 mph - N/A   Overcast
5:53 PM 48.0 °F - 41.0 °F 77% 29.49 in 10.0 mi NNW 5.8 mph - N/A   Overcast
6:53 PM 46.0 °F 43.1 °F 43.0 °F 89% 29.49 in 10.0 mi WNW 5.8 mph - 0.00 in Rain Light Rain
7:53 PM 46.0 °F 42.5 °F 42.1 °F 86% 29.50 in 10.0 mi West 6.9 mph - 0.01 in Rain Light Rain
8:53 PM 45.0 °F 41.8 °F 42.1 °F 90% 29.52 in 10.0 mi West 5.8 mph - 0.00 in   Overcast
9:22 PM 45.0 °F 43.5 °F 42.1 °F 90% 29.52 in 10.0 mi WSW 3.5 mph - N/A   Overcast
9:53 PM 45.0 °F 43.5 °F 42.1 °F 90% 29.53 in 10.0 mi WSW 3.5 mph - N/A   Overcast
10:16 PM 45.0 °F 41.8 °F 41.0 °F 86% 29.52 in 10.0 mi WSW 5.8 mph - N/A   Scattered Clouds
10:53 PM 45.0 °F 43.5 °F 41.0 °F 86% 29.54 in 10.0 mi WSW 3.5 mph - N/A   Overcast
11:53 PM 44.1 °F - 42.1 °F 93% 29.55 in 10.0 mi Calm Calm - N/A   Overcast